STARLINK-4715, 53801

Orbit data source: Space-Track

STARLINK-4715, 53801 is a payload satellite owned by SpaceX/Seattle (US) in LEO that was launched on Sun, 11 Sep 2022 UTC via an FALCON 9 launch vehicle from the Air Force Eastern Test Range (AFETR). Payload-class satellites include a variety of spacecraft equipped with specific instruments for various scientific and technological missions. These include communications satellites like Starlink; space stations such as the ISS; scientific satellites like the Hubble; Earth observation satellites from companies like Planet Labs, Umbra, and HawkEye 360; GPS; miniature CubeSats for education and research; and military/defense satellites.

Loading next visibility...
Identifier
53801, 2022-111AE
Orbit
LEO
Last TLE update
7 hours ago
Origin
Manufacturer
SpaceX/Seattle
Mission
Operational Commercial Communications
Bus & Motor
STARLINK, Unknown motor
Mass
305 kg wet, ~290 kg dry
Launch date (UTC)
2022-09-11 (3 years ago)
Launch vehicle
FALCON 9
Launch site
Air Force Eastern Test Range (AFETR)
Object type
Payload
Rocket body
Debris
Shape & HBR
Box + 1 Pan, 8.86 m
Radar Cross Section
13.562 m², Large (>1 m²)

Expand to show TLE details & history

TLE from 7 hours ago
0 STARLINK-4715
1 53801U 22111AE  25129.47355340  .00000113  00000-0  25185-4 0  9994
2 53801  53.2163 189.5474 0001277  90.6296 269.4843 15.08837628147080
Epoch: 2025-05-09T11:21Z
Definitive object data (Epoch: 2025-05-09T11:21:55.013Z)
Latitude
0.00001°
Longitude
151.539°
Altitude
540.656 km
Speed
7.593 km/s
True Right ascension
12h 38m 11s
True Declination
0° 00' 00"
Sunlit
Object was in full shadow at TLE epoch
Visualization TLE readout
Latitude
-13.33644°
Longitude
-19.66062°
Altitude
543.554 km
Speed
7.591 km/s
Apparent Right ascension
22h 29m 58s
Apparent Declination
-62° 25' 36"
Sunlit
Object is in daylight
Visualization observer readout
Local Sidereal Time
02:46:20
Azimuth
207.213° SW
Elevation
-24.434°
Doppler factor
1
Orbital elements
Apogee altitude
540.879 km
Perigee altitude
539.112 km
Semi-major axis
6,918.133 km
Eccentricity
0.0001277
Inclination
53.2163°
RAAN
189.5474°
Arg. of periapsis
90.6296°
True anomaly
269.46967°
Mean anomaly
269.4843°
Eccentric anomaly
269.47698°
Mean motion
3.7719 °/min
BSTAR
0.000025185
Orbital period
95.44 mins
Loading maneuver chart data...
Loading SW <> Apogee altitude chart data...
Loading historical data...
Loading historical data...
Loading historical data...
Loading historical data...
Loading historical data...
Loading historical data...
Loading historical data...

STARLINK-4715 Visibility forecast

Observer location: undefined°, undefined°

Span
Click to sort rows by Start time (UTC) header in descending order
Start Az.
Max El. time (UTC)
Max El. Az.
Max El.
End time (UTC)
End Az.
6 mins2025-05-10 06:37:30.126Z224.874° SW2025-05-10 06:40:30.126Z111.335° ESE44.677°2025-05-10 06:43:30.126Z52.068° ENE
4 mins2025-05-10 08:18:30.126Z303.911° NW2025-05-10 08:20:30.126Z344.512° N20.062°2025-05-10 08:22:30.126Z19.716° NNE
4 mins2025-05-10 11:39:30.126Z345.838° N2025-05-10 11:41:30.126Z21.921° NNE18.043°2025-05-10 11:43:30.126Z56.897° ENE
6 mins2025-05-10 13:18:30.126Z314.621° NW2025-05-10 13:21:30.126Z73.099° E43.833°2025-05-10 13:24:30.126Z124.415° SE
|